timestamp,wind_dir_avg,wind_spd_max_dir,wind_spd_avg,wind_spd_gust,battery_voltage,lat,long
2018-07-04 00:00:00+00:00,225.0,228.0,9.71,10.89,,47.59359,-54.27349
2018-07-04 00:10:00+00:00,221.0,223.0,9.0,10.4,,47.59359,-54.27349
2018-07-04 00:20:00+00:00,220.0,220.0,9.28,10.33,,47.59359,-54.27349
2018-07-04 00:30:00+00:00,222.0,222.0,9.43,10.55,,47.59359,-54.27349
2018-07-04 00:40:00+00:00,220.0,221.0,9.79,10.53,,47.59359,-54.27349
2018-07-04 00:50:00+00:00,220.0,218.0,9.3,9.92,,47.59359,-54.27349
2018-07-04 01:00:00+00:00,224.0,226.0,9.48,10.29,,47.59359,-54.27349
2018-07-04 01:10:00+00:00,225.0,227.0,9.51,10.41,,47.59359,-54.27349
2018-07-04 01:20:00+00:00,221.0,222.0,10.09,10.73,,47.59359,-54.27349
2018-07-04 01:30:00+00:00,222.0,220.0,9.45,10.37,,47.59359,-54.27349
2018-07-04 01:40:00+00:00,224.0,227.0,9.65,10.33,,47.59359,-54.27349
2018-07-04 01:50:00+00:00,225.0,227.0,10.24,11.08,,47.59359,-54.27349
2018-07-04 02:00:00+00:00,228.0,229.0,9.48,10.48,,47.59359,-54.27349
2018-07-04 02:10:00+00:00,224.0,224.0,10.35,11.15,,47.59359,-54.27349
2018-07-04 02:20:00+00:00,225.0,223.0,9.89,11.26,,47.59359,-54.27349
2018-07-04 02:30:00+00:00,230.0,229.0,9.02,10.23,,47.59359,-54.27349
2018-07-04 02:40:00+00:00,225.0,225.0,10.46,11.34,,47.59359,-54.27349
2018-07-04 02:50:00+00:00,227.0,226.0,9.68,10.59,,47.59359,-54.27349
2018-07-04 03:00:00+00:00,224.0,228.0,10.19,10.91,,47.59359,-54.27349
2018-07-04 03:10:00+00:00,229.0,227.0,10.53,11.33,,47.59359,-54.27349
2018-07-04 03:20:00+00:00,229.0,229.0,9.82,10.87,,47.59359,-54.27349
2018-07-04 03:30:00+00:00,231.0,232.0,8.79,9.51,,47.59359,-54.27349
2018-07-04 03:40:00+00:00,230.0,233.0,8.7,9.38,,47.59359,-54.27349
2018-07-04 03:50:00+00:00,230.0,231.0,7.79,8.62,,47.59359,-54.27349
2018-07-04 04:00:00+00:00,230.0,232.0,7.54,8.34,,47.59359,-54.27349
2018-07-04 04:10:00+00:00,226.0,220.0,5.77,6.73,,47.59359,-54.27349
2018-07-04 04:20:00+00:00,225.0,222.0,7.12,7.89,,47.59359,-54.27349
2018-07-04 04:30:00+00:00,224.0,224.0,6.81,7.44,,47.59359,-54.27349
2018-07-04 04:40:00+00:00,231.0,234.0,6.22,6.87,,47.59359,-54.27349
2018-07-04 04:50:00+00:00,225.0,233.0,5.17,5.83,,47.59359,-54.27349
2018-07-04 05:00:00+00:00,233.0,238.0,5.37,6.68,,47.59359,-54.27349
2018-07-04 05:10:00+00:00,224.0,224.0,7.43,7.97,,47.59359,-54.27349
2018-07-04 05:20:00+00:00,224.0,225.0,6.81,7.25,,47.59359,-54.27349
2018-07-04 05:30:00+00:00,223.0,222.0,7.01,7.39,,47.59359,-54.27349
2018-07-04 05:40:00+00:00,224.0,222.0,6.66,6.97,,47.59359,-54.27349
2018-07-04 05:50:00+00:00,219.0,223.0,5.75,6.3,,47.59359,-54.27349
2018-07-04 06:00:00+00:00,224.0,226.0,6.83,7.78,,47.59359,-54.27349
2018-07-04 06:10:00+00:00,225.0,228.0,7.53,8.03,,47.59359,-54.27349
2018-07-04 06:20:00+00:00,235.0,233.0,7.23,8.04,,47.59359,-54.27349
2018-07-04 06:30:00+00:00,237.0,236.0,6.1,7.03,,47.59359,-54.27349
2018-07-04 06:40:00+00:00,234.0,235.0,6.45,7.11,,47.59359,-54.27349
2018-07-04 06:50:00+00:00,230.0,231.0,5.97,6.86,,47.59359,-54.27349
2018-07-04 07:00:00+00:00,228.0,232.0,5.84,6.81,,47.59359,-54.27349
2018-07-04 07:10:00+00:00,233.0,232.0,6.6,7.17,,47.59359,-54.27349
2018-07-04 07:20:00+00:00,232.0,233.0,6.31,6.85,,47.59359,-54.27349
2018-07-04 07:30:00+00:00,228.0,227.0,5.22,6.58,,47.59359,-54.27349
2018-07-04 07:40:00+00:00,223.0,226.0,5.34,5.77,,47.59359,-54.27349
2018-07-04 07:50:00+00:00,227.0,231.0,3.85,4.35,,47.59359,-54.27349
2018-07-04 08:00:00+00:00,224.0,225.0,5.19,5.7,,47.59359,-54.27349
2018-07-04 08:10:00+00:00,216.0,220.0,5.2,5.74,,47.59359,-54.27349
2018-07-04 08:20:00+00:00,212.0,212.0,4.77,5.26,,47.59359,-54.27349
2018-07-04 08:30:00+00:00,222.0,222.0,6.03,6.73,,47.59359,-54.27349
2018-07-04 08:40:00+00:00,227.0,226.0,6.22,6.92,,47.59359,-54.27349
2018-07-04 08:50:00+00:00,225.0,223.0,6.29,6.76,,47.59359,-54.27349
2018-07-04 09:00:00+00:00,234.0,232.0,4.97,5.6,,47.59359,-54.27349
2018-07-04 09:10:00+00:00,225.0,227.0,6.08,6.7,,47.59359,-54.27349
2018-07-04 09:20:00+00:00,267.0,275.0,2.83,3.56,,47.59359,-54.27349
2018-07-04 09:30:00+00:00,244.0,247.0,5.11,5.81,,47.59359,-54.27349
2018-07-04 09:40:00+00:00,233.0,232.0,6.51,7.04,,47.59359,-54.27349
2018-07-04 09:50:00+00:00,231.0,231.0,6.14,6.51,,47.59359,-54.27349
2018-07-04 10:00:00+00:00,230.0,231.0,5.89,6.5,,47.59359,-54.27349
2018-07-04 10:10:00+00:00,225.0,227.0,7.84,9.03,,47.59359,-54.27349
2018-07-04 10:20:00+00:00,233.0,232.0,7.54,8.4,,47.59359,-54.27349
2018-07-04 10:30:00+00:00,228.0,232.0,7.27,8.42,,47.59359,-54.27349
2018-07-04 10:40:00+00:00,230.0,227.0,5.61,6.3,,47.59359,-54.27349
2018-07-04 10:50:00+00:00,233.0,232.0,5.54,6.35,,47.59359,-54.27349
2018-07-04 11:00:00+00:00,225.0,227.0,6.82,7.73,,47.59359,-54.27349
2018-07-04 11:10:00+00:00,221.0,220.0,6.0,6.5,,47.59359,-54.27349
2018-07-04 11:20:00+00:00,225.0,225.0,6.84,7.16,,47.59359,-54.27349
2018-07-04 11:30:00+00:00,220.0,222.0,7.04,7.44,,47.59359,-54.27349
2018-07-04 11:40:00+00:00,230.0,229.0,6.13,6.81,,47.59359,-54.27349
2018-07-04 11:50:00+00:00,232.0,235.0,5.71,6.4,,47.59359,-54.27349
2018-07-04 12:00:00+00:00,219.0,220.0,5.91,6.64,,47.59359,-54.27349
2018-07-04 12:10:00+00:00,209.0,217.0,6.63,7.58,,47.59359,-54.27349
2018-07-04 12:20:00+00:00,221.0,222.0,6.69,7.48,,47.59359,-54.27349
2018-07-04 12:30:00+00:00,221.0,221.0,6.53,7.2,,47.59359,-54.27349
2018-07-04 12:40:00+00:00,223.0,226.0,7.86,8.55,,47.59359,-54.27349
2018-07-04 12:50:00+00:00,214.0,215.0,7.24,8.18,,47.59359,-54.27349
2018-07-04 13:00:00+00:00,221.0,222.0,6.49,7.07,,47.59359,-54.27349
2018-07-04 13:10:00+00:00,223.0,225.0,5.54,6.2,,47.59359,-54.27349
2018-07-04 13:20:00+00:00,232.0,232.0,5.39,6.15,,47.59359,-54.27349
2018-07-04 13:30:00+00:00,237.0,237.0,5.6,6.47,,47.59359,-54.27349
2018-07-04 13:40:00+00:00,201.0,202.0,3.85,4.46,,47.59359,-54.27349
2018-07-04 13:50:00+00:00,211.0,205.0,4.64,5.27,,47.59359,-54.27349
2018-07-04 14:00:00+00:00,226.0,227.0,8.61,9.37,,47.59359,-54.27349
2018-07-04 14:10:00+00:00,213.0,211.0,6.43,6.88,,47.59359,-54.27349
2018-07-04 14:20:00+00:00,213.0,214.0,5.43,6.25,,47.59359,-54.27349
2018-07-04 14:30:00+00:00,162.0,161.0,1.48,2.21,,47.59359,-54.27349
2018-07-04 14:40:00+00:00,201.0,205.0,5.61,7.79,,47.59359,-54.27349
2018-07-04 14:50:00+00:00,222.0,224.0,10.02,10.68,,47.59359,-54.27349
2018-07-04 15:00:00+00:00,222.0,222.0,10.2,11.07,,47.59359,-54.27349
2018-07-04 15:10:00+00:00,221.0,223.0,9.98,10.79,,47.59359,-54.27349
2018-07-04 15:20:00+00:00,219.0,220.0,10.01,11.0,,47.59359,-54.27349
2018-07-04 15:30:00+00:00,220.0,219.0,10.48,11.47,,47.59359,-54.27349
2018-07-04 15:40:00+00:00,222.0,227.0,11.0,11.8,,47.59359,-54.27349
2018-07-04 15:50:00+00:00,223.0,222.0,10.9,11.65,,47.59359,-54.27349
2018-07-04 16:00:00+00:00,222.0,228.0,10.14,11.31,,47.59359,-54.27349
2018-07-04 16:10:00+00:00,217.0,219.0,10.63,12.48,,47.59359,-54.27349
2018-07-04 16:20:00+00:00,218.0,218.0,10.22,11.22,,47.59359,-54.27349
2018-07-04 16:30:00+00:00,218.0,218.0,9.29,10.19,,47.59359,-54.27349
2018-07-04 16:40:00+00:00,212.0,214.0,8.58,9.75,,47.59359,-54.27349
2018-07-04 16:50:00+00:00,215.0,218.0,9.47,10.78,,47.59359,-54.27349
2018-07-04 17:00:00+00:00,216.0,215.0,8.9,9.98,,47.59359,-54.27349
2018-07-04 17:10:00+00:00,216.0,217.0,8.46,9.37,,47.59359,-54.27349
2018-07-04 17:20:00+00:00,221.0,221.0,9.82,10.87,,47.59359,-54.27349
2018-07-04 17:40:00+00:00,202.0,207.0,7.8,9.1,,47.59359,-54.27349
2018-07-04 17:50:00+00:00,211.0,214.0,8.06,8.95,,47.59359,-54.27349
2018-07-04 18:00:00+00:00,212.0,211.0,9.05,9.94,,47.59359,-54.27349
2018-07-04 18:10:00+00:00,214.0,216.0,7.91,9.06,,47.59359,-54.27349
2018-07-04 18:20:00+00:00,216.0,221.0,8.08,9.52,,47.59359,-54.27349
2018-07-04 18:30:00+00:00,220.0,218.0,9.82,10.72,,47.59359,-54.27349
2018-07-04 18:40:00+00:00,216.0,217.0,8.97,9.89,,47.59359,-54.27349
2018-07-04 18:50:00+00:00,215.0,218.0,9.27,10.2,,47.59359,-54.27349
2018-07-04 19:00:00+00:00,212.0,213.0,8.96,9.48,,47.59359,-54.27349
2018-07-04 19:10:00+00:00,209.0,211.0,8.16,8.58,,47.59359,-54.27349
2018-07-04 19:20:00+00:00,213.0,215.0,8.37,9.31,,47.59359,-54.27349
2018-07-04 19:30:00+00:00,216.0,218.0,9.41,10.07,,47.59359,-54.27349
2018-07-04 19:40:00+00:00,217.0,218.0,9.73,10.45,,47.59359,-54.27349
2018-07-04 19:50:00+00:00,218.0,217.0,9.22,9.94,,47.59359,-54.27349
2018-07-04 20:00:00+00:00,220.0,223.0,8.83,9.57,,47.59359,-54.27349
2018-07-04 20:10:00+00:00,223.0,226.0,8.07,8.46,,47.59359,-54.27349
2018-07-04 20:20:00+00:00,232.0,233.0,7.77,9.08,,47.59359,-54.27349
2018-07-04 20:30:00+00:00,230.0,234.0,5.87,7.08,,47.59359,-54.27349
2018-07-04 20:40:00+00:00,227.0,225.0,6.65,7.26,,47.59359,-54.27349
2018-07-04 20:50:00+00:00,227.0,228.0,6.07,6.72,,47.59359,-54.27349
2018-07-04 21:00:00+00:00,225.0,223.0,6.47,7.12,,47.59359,-54.27349
2018-07-04 21:10:00+00:00,225.0,224.0,6.26,6.72,,47.59359,-54.27349
2018-07-04 21:20:00+00:00,221.0,221.0,7.91,8.34,,47.59359,-54.27349
2018-07-04 21:30:00+00:00,223.0,228.0,6.88,7.28,,47.59359,-54.27349
2018-07-04 21:40:00+00:00,226.0,217.0,6.74,7.96,,47.59359,-54.27349
2018-07-04 21:50:00+00:00,231.0,231.0,5.57,6.54,,47.59359,-54.27349
2018-07-04 22:00:00+00:00,241.0,237.0,6.81,8.02,,47.59359,-54.27349
2018-07-04 22:10:00+00:00,248.0,248.0,4.07,4.99,,47.59359,-54.27349
2018-07-04 22:20:00+00:00,262.0,265.0,5.99,6.41,,47.59359,-54.27349
2018-07-04 22:30:00+00:00,261.0,264.0,6.89,7.19,,47.59359,-54.27349
2018-07-04 22:40:00+00:00,260.0,257.0,6.48,6.94,,47.59359,-54.27349
2018-07-04 22:50:00+00:00,272.0,270.0,4.28,4.71,,47.59359,-54.27349
2018-07-04 23:00:00+00:00,65.0,63.0,7.08,8.04,,47.59359,-54.27349
2018-07-04 23:10:00+00:00,49.0,51.0,6.03,6.42,,47.59359,-54.27349
2018-07-04 23:20:00+00:00,40.0,40.0,6.78,7.18,,47.59359,-54.27349
2018-07-04 23:30:00+00:00,41.0,42.0,7.17,8.09,,47.59359,-54.27349
2018-07-04 23:40:00+00:00,49.0,52.0,6.37,7.13,,47.59359,-54.27349
2018-07-04 23:50:00+00:00,40.0,39.0,7.55,8.28,,47.59359,-54.27349
